Islamorada, Florida Weather Center

Moon Phase Calendar



Online Cameras

 


      

Current Conditions in Islamorada
4/13/2021 9:22:01 PM

78°F
Feels Like 79
Clear
Humidity
68%
Pressure
30"
Wind
15.5 mph (E)
Dew Point
67°F
UV Index
0/10 (Low)
Visibility
6 mi

Hourly Forecast

Date & Time Tue, Apr 13
9:00 PM
Tue, Apr 13
10:00 PM
Tue, Apr 13
11:00 PM
Wed, Apr 14
12:00 AM
Wed, Apr 14
1:00 AM
Wed, Apr 14
2:00 AM
Wed, Apr 14
3:00 AM
Wed, Apr 14
4:00 AM
Wed, Apr 14
5:00 AM
Wed, Apr 14
6:00 AM
Wed, Apr 14
7:00 AM
Wed, Apr 14
8:00 AM
Wed, Apr 14
9:00 AM
Wed, Apr 14
10:00 AM
Wed, Apr 14
11:00 AM
Wed, Apr 14
12:00 PM
Wed, Apr 14
1:00 PM
Wed, Apr 14
2:00 PM
Wed, Apr 14
3:00 PM
Wed, Apr 14
4:00 PM
Wed, Apr 14
5:00 PM
Wed, Apr 14
6:00 PM
Wed, Apr 14
7:00 PM
Wed, Apr 14
8:00 PM
Wed, Apr 14
9:00 PM
Wed, Apr 14
10:00 PM
Wed, Apr 14
11:00 PM
Thu, Apr 15
12:00 AM
Thu, Apr 15
1:00 AM
Thu, Apr 15
2:00 AM
Thu, Apr 15
3:00 AM
Thu, Apr 15
4:00 AM
Thu, Apr 15
5:00 AM
Thu, Apr 15
6:00 AM
Thu, Apr 15
7:00 AM
Thu, Apr 15
8:00 AM
Thu, Apr 15
9:00 AM
Thu, Apr 15
10:00 AM
Thu, Apr 15
11:00 AM
Thu, Apr 15
12:00 PM
Thu, Apr 15
1:00 PM
Thu, Apr 15
2:00 PM
Thu, Apr 15
3:00 PM
Thu, Apr 15
4:00 PM
Thu, Apr 15
5:00 PM
Thu, Apr 15
6:00 PM
Thu, Apr 15
7:00 PM
Thu, Apr 15
8:00 PM
Condition
Clear

Clear

Clear

Clear

Clear

Clear

Clear

Clear

Clear

Clear

Clear

Clear

Clear

Clear

Clear

Clear

Clear

Clear

Clear

Clear

Clear

Clear

Clouds

Clear

Clear

Clear

Clear

Clear

Clear

Clear

Clear

Clear

Clear

Clouds

Clouds

Clouds

Clear

Clear

Clear

Clear

Clear

Clear

Clouds

Clouds

Clouds

Clouds

Clouds

Clouds
Temperature 78°F78°F78°F78°F78°F77°F77°F77°F77°F76°F76°F76°F76°F76°F76°F76°F76°F76°F76°F76°F76°F76°F75°F76°F76°F76°F75°F75°F75°F75°F75°F75°F75°F75°F74°F75°F75°F75°F75°F75°F75°F76°F76°F76°F76°F76°F76°F76°F
Feels Like 79°F79°F78°F78°F78°F78°F77°F77°F77°F77°F77°F77°F76°F76°F76°F76°F76°F76°F76°F76°F76°F76°F76°F76°F76°F76°F76°F76°F75°F75°F75°F76°F75°F75°F75°F75°F75°F75°F76°F76°F76°F76°F76°F76°F76°F76°F76°F76°F
Cloudiness 0%0%0%0%0%0%0%0%0%0%0%0%0%0%1%1%1%1%0%1%1%2%11%10%0%2%2%3%3%3%6%6%5%23%34%29%7%7%5%5%5%5%44%26%19%15%12%11%
Visibility 6 mi6 mi6 mi6 mi6 mi6 mi6 mi6 mi6 mi6 mi6 mi6 mi6 mi6 mi6 mi6 mi6 mi6 mi6 mi6 mi6 mi6 mi6 mi6 mi6 mi6 mi6 mi6 mi6 mi6 mi6 mi6 mi6 mi6 mi6 mi6 mi6 mi6 mi6 mi6 mi6 mi6 mi6 mi6 mi6 mi6 mi6 mi6 mi
Precipitation 0%0%0%0%0%0%0%0%0%0%0%0%0%0%0%0%0%0%0%0%0%0%0%0%0%0%0%0%0%0%0%0%0%0%0%0%0%0%0%0%0%0%0%0%0%0%0%0%
Humidity 68%66%65%63%61%61%62%64%65%66%67%68%67%67%66%66%66%66%66%67%67%67%67%66%66%67%68%69%70%70%69%69%69%70%69%69%69%69%69%69%69%70%69%68%68%67%66%66%
Dew Point 67°F66°F65°F64°F63°F63°F63°F64°F64°F65°F65°F65°F65°F64°F64°F64°F64°F64°F64°F64°F64°F64°F64°F64°F64°F64°F64°F65°F65°F65°F64°F64°F64°F64°F64°F64°F64°F64°F65°F65°F65°F65°F65°F65°F65°F64°F64°F64°F
Pressure 30"30"30.03"30.03"30.06"30.03"30.03"30.03"30.03"30.06"30.06"30.09"30.12"30.12"30.12"30.12"30.09"30.09"30.06"30.03"30.03"30.03"30.03"30.06"30.06"30.06"30.06"30.03"30.03"30"30"29.97"29.97"29.97"30"30"30"30.03"30.03"30.03"30"29.97"29.94"29.94"29.94"29.94"29.94"29.94"
Wind Speed 15.5 mph15.3 mph14.6 mph14.2 mph15.1 mph15.4 mph15.6 mph15 mph15.5 mph16.8 mph16.8 mph17 mph17.4 mph17.8 mph17.8 mph17.8 mph17.3 mph17 mph15.9 mph16.7 mph17.1 mph16.5 mph16 mph15.6 mph15.9 mph16.4 mph17.4 mph17.6 mph16.1 mph14.8 mph13.6 mph14.2 mph13.4 mph13 mph12.4 mph13.5 mph14.3 mph13.2 mph13.6 mph12.6 mph13 mph13.5 mph12.5 mph9.9 mph8 mph5.4 mph2.8 mph3.9 mph
Wind
Direction
89°
E
88°
E
80°
E
71°
ENE
66°
ENE
63°
ENE
62°
ENE
62°
ENE
59°
ENE
64°
ENE
72°
ENE
77°
ENE
85°
E
90°
E
91°
E
91°
E
91°
E
93°
E
89°
E
91°
E
93°
E
91°
E
86°
E
82°
E
79°
E
89°
E
98°
E
107°
ESE
109°
ESE
113°
ESE
120°
ESE
122°
ESE
124°
SE
124°
SE
126°
SE
130°
SE
135°
SE
134°
SE
137°
SE
144°
SE
151°
SSE
161°
SSE
167°
SSE
172°
S
164°
SSE
163°
SSE
138°
SE
110°
ESE

Daily Forecast

Date High Low Precip. Humidity
Today
Apr 13

Rain
78 °F
76 °F
28%
57%
Wednesday
Apr 14

Clear
78 °F
75 °F
0%
66%
Thursday
Apr 15

Clear
76 °F
74 °F
0%
69%
Friday
Apr 16

Clear
78 °F
76 °F
0%
66%
Saturday
Apr 17

Clear
79 °F
78 °F
0%
76%
Sunday
Apr 18

Rain
80 °F
78 °F
41%
76%
Monday
Apr 19

Rain
80 °F
79 °F
96%
80%
Tuesday
Apr 20

Rain
80 °F
79 °F
93%
79%
Wednesday
Apr 21

Rain
80 °F
78 °F
70%
77%
Thursday
Apr 22

Rain
79 °F
76 °F
55%
70%
Friday
Apr 23

Rain
77 °F
75 °F
20%
74%
Saturday
Apr 24

Rain
79 °F
76 °F
37%
74%
Sunday
Apr 25

Rain
79 °F
77 °F
42%
77%
Monday
Apr 26

Rain
78 °F
75 °F
24%
65%
Tuesday
Apr 27

Rain
78 °F
76 °F
63%
75%
Wednesday
Apr 28

Rain
76 °F
76 °F
84%
73%

Temperature 8-14 Day Outlook



Precipitation 8-14 Day Outlook




Quick Links
Islamorada, Florida News
Islamorada, Florida Photos
Islamorada, Florida Videos




About Us
Contact Us
Site Map
Search Site
Advertise With Us
   
Islamorada.CoastalTown.com
THE ISLAMORADA, FLORIDA WEBSITE

Copyright 2021, Coastal Town
Privacy    |    Legal